Home > Weather > Pelotas > Past weeks

Flag for Brazil Past Weather in Pelotas, Rio Grande do Sul, Brazil — Yesterday and Last 2 Weeks

Now
59 °F

Clear.


Feels Like: 59 °F
Forecast: N/A
Wind: 5 mph from East

Location: Porto Alegre Aero-Porto

Current Time: Jun 26, 2016 at 7:42:48 PM

Latest Report: Jun 26, 2016 at 7:00 PM


Visibility: 10 mi

Pressure: 30.27 "Hg

Humidity: 88%

Dew Point: 55 °F

Location of PelotasLocation

Past Weather in Pelotas — Graph

°F

Pelotas Temperature Yesterday

Maximum temperature yesterday: 68 °F (at 5:00 PM)
Minimum temperature yesterday: 50 °F (at 1:00 AM)
Average temperature yesterday: 56 °F

High & Low Weather Summary for the Past Weeks

 TemperatureHumidityPressure
High72 °F (Jun 26, 4:00 PM)100% (Jun 14, 12:00 AM)30.48 "Hg (Jun 14, 12:00 AM)
Low36 °F (Jun 13, 5:00 AM)44% (Jun 12, 2:00 PM)30.09 "Hg (Jun 16, 5:00 PM)
Average52 °F86%30.26 "Hg
* Reported Jun 11 6:00 PM — Jun 26 6:00 PM, Pelotas, Weather by CustomWeather, © 2016

Note: Actual official high and low records may vary slightly from our data, if they occured in-between our weather recording intervals... More about our weather records

Advertising

Pelotas Weather History for the Previous 24 Hours

Scroll right to see more
 ConditionsComfort  
Time TempWeatherWind HumidityBarometerVisibility
6:00 PM
Sun, Jun 26
63 °FClear.9 mph83%30.24 "Hg10 mi
5:00 PM66 °FClear.8 mph73%30.21 "Hg10 mi
4:00 PM72 °FSunny.6 mph57%30.21 "Hg10 mi
3:00 PM70 °FSunny.5 mph60%30.21 "Hg10 mi
2:00 PM70 °FSunny.3 mph60%30.21 "Hg10 mi
1:00 PM66 °FScattered clouds.7 mph73%30.24 "Hg6 mi
12:00 PM64 °FScattered clouds.3 mph78%30.27 "Hg4 mi
11:00 AM63 °FPartly sunny.2 mph83%30.30 "Hg4 mi
10:00 AM55 °FFog.2 mph100%30.33 "Hg1 mi
9:00 AM55 °FFog.6 mph94%30.30 "Hg1 mi
8:00 AM52 °FFog.6 mph100%30.27 "Hg1 mi
7:00 AM54 °FFog.5 mph100%30.24 "Hg2 mi
6:00 AM52 °FFog.2 mph100%30.24 "Hg2 mi
5:00 AM50 °FFog.No wind54%N/A1 mi
4:00 AM48 °FFog.3 mph54%N/A1 mi
3:00 AM52 °FFog.3 mph100%30.18 "Hg1 mi
2:00 AM52 °FFog.3 mph100%30.18 "Hg1 mi
1:00 AM52 °FFog.1 mph100%30.18 "Hg1 mi
12:00 AM55 °FFog.2 mph94%30.18 "Hg3 mi
11:00 PM
Sat, Jun 25
54 °FFog.2 mph94%30.18 "Hg3 mi
10:00 PM55 °FClear.2 mph94%30.18 "Hg4 mi
9:00 PM59 °FClear.3 mph88%30.18 "Hg5 mi
8:00 PM59 °FClear.3 mph88%30.15 "Hg10 mi
7:00 PM63 °FClear.5 mph77%30.15 "Hg10 mi
Weather by CustomWeather, © 2016

See weather overviewHow to use our weather pages